Flag for U.S.A. Weather past 2 weeks in Aurora, Colorado, U.S.A.

Now
5 °F

Clear.


Feels Like: -8 °F
Forecast: 3 / 27 °F
Wind: 8 mph from South

Location: Buckley Air Force Base

Current Time: Dec 27, 2014 at 3:11:37 AM

Latest Report: Dec 27, 2014 at 1:58 AM


Visibility: 10 mi

Pressure: 30.28 "Hg

Humidity: 89%

Dew point: 2 °F

Location of AuroraLocation

Historic Weather in Aurora — Graph

°F

Aurora temperature yesterday

Maximum temperature yesterday: 18 °F (at 12:58 PM)
Minimum temperature yesterday: 4 °F (at 11:58 PM)
Average temperature yesterday: 14 °F

Past Weeks' High & Low Weather Summary

 TemperatureHumidityPressure
High66 °F (Dec 12, 2:58 PM)100% (Dec 14, 10:58 AM)30.29 "Hg (Dec 14, 10:58 AM)
Low4 °F (Dec 26, 11:58 PM)9% (Dec 12, 1:58 PM)29.31 "Hg (Dec 25, 4:58 AM)
Average32 °F65%29.92 "Hg
* Reported Dec 12 1:58 AM — Dec 27 1:58 AM, Aurora, Weather by CustomWeather, © 2014

Note: Actual official high and low records may vary slightly from our data, if they occured in-between our weather recording intervals... More about our weather records

Advertising

Aurora weather history for previous 24 hours

 ConditionsComfort  
Time TempWeatherWind HumidityBarometerVisibility
1:58 AM
Dec 27
5 °FClear.8 mph89%30.28 "Hg10 mi
12:58 AM4 °FClear.5 mph88%30.28 "Hg10 mi
11:58 PM
Dec 26
4 °FPassing clouds.7 mph88%30.29 "Hg10 mi
10:58 PM9 °FPartly cloudy.3 mph92%30.28 "Hg10 mi
9:58 PM9 °FPartly cloudy.3 mph92%30.27 "Hg10 mi
8:58 PM11 °FPartly cloudy.3 mph93%30.26 "Hg10 mi
7:58 PM12 °FLight snow. Partly cloudy.2 mph96%30.22 "Hg10 mi
6:58 PM13 °FLight snow. Partly cloudy.2 mph96%30.22 "Hg3 mi
5:58 PM13 °FLight snow. Ice fog.2 mph96%30.18 "Hg2 mi
4:58 PM13 °FLight snow. Partly cloudy.3 mph92%30.14 "Hg7 mi
3:58 PM15 °FLight snow. Broken clouds.6 mph84%30.09 "Hg10 mi
2:58 PM18 °FLight snow. Broken clouds.6 mph84%30.06 "Hg7 mi
1:58 PM18 °FLight snow. Ice fog.6 mph82%30.04 "Hg9 mi
12:58 PM18 °FLight snow. Ice fog.8 mph83%30.04 "Hg4 mi
11:58 AM18 °FLight snow. Ice fog.5 mph82%30.06 "Hg4 mi
10:58 AM16 °FLight snow. Low clouds.6 mph98%30.09 "Hg7 mi
9:58 AM15 °FLight snow. Ice fog.5 mph98%30.11 "Hg3 mi
8:58 AM14 °FLight snow. Ice fog.3 mph97%30.10 "Hg3 mi
7:58 AM13 °FLight snow. Ice fog.1 mph97%30.06 "Hg3 mi
6:58 AM12 °FLight snow. Mostly cloudy.5 mph96%30.06 "Hg10 mi
5:58 AM13 °FLight snow. Mostly cloudy.5 mph98%30.02 "Hg10 mi
4:58 AM15 °FLight snow. Mostly cloudy.7 mph99%29.98 "Hg8 mi
3:58 AM16 °FLight snow. Ice fog.5 mph99%29.95 "Hg5 mi
Weather by CustomWeather, © 2014

See weather overviewHow to use our weather pages